Theta_e
307 307 307 307 307 307 306 306 306 305 305 306 305 306 306 305 305 305 304 304 304 304 303 303 303 300 298 298 303 304 304 305 305 305 306 307 308 307
307 307 307 307 307 307 307 306 306 306 306 306 306 306 306 305 305 305 304 304 304 304 303 303 303 303 303 301 303 303 303 304 304 304 305 306 307 306
308 307 307 307 307 307 307 306 306 306 306 306 306 306 306 305 305 305 304 304 304 304 303 303 303 303 303 303 303 303 303 303 303 303 304 304 303 306
311 310 310 309 309 308 307 307 306 306 306 306 306 306 306 305 305 305 304 304 303 303 303 303 303 303 302 303 303 303 303 303 303 301 303 304 304 304
311 311 310 309 309 308 307 307 306 306 306 306 306 306 306 305 305 305 304 304 304 304 304 304 303 302 303 303 303 303 302 302 302 301 301 301 302 303
310 309 309 308 308 308 307 307 307 307 306 306 306 306 305 305 305 305 304 304 304 304 304 304 304 304 303 303 302 302 302 301 302 301 301 301 300 300
307 307 307 308 308 308 308 308 308 307 307 306 306 305 305 304 304 304 304 305 304 305 305 304 304 303 303 302 302 301 301 301 301 301 301 301 300 300
307 307 307 308 308 308 308 308 308 308 308 307 306 305 304 304 304 304 305 305 305 305 305 304 301 302 302 302 301 301 301 300 300 300 301 301 300 300
306 307 307 307 307 307 307 307 307 307 307 307 306 304 304 304 304 304 304 305 305 304 303 302 301 302 303 301 301 300 300 300 300 300 300 300 300 299
306 306 306 306 306 306 306 306 306 305 304 304 304 304 304 304 304 305 305 305 303 302 303 301 301 300 302 301 301 300 300 300 300 299 299 299 299 300
306 306 306 306 306 306 306 306 305 305 304 303 303 303 304 305 304 304 303 301 301 301 301 301 301 301 300 300 301 300 299 300 299 299 298 298 299 298
305 305 305 305 305 305 305 305 304 303 303 303 303 302 302 301 300 300 300 300 300 300 300 300 299 301 300 300 300 300 299 299 299 299 298 296 297 297
305 305 305 305 305 304 303 300 299 301 302 300 297 297 296 297 296 297 297 297 297 298 298 299 300 300 300 300 300 299 298 299 299 298 298 297 297 297
304 305 305 304 303 300 298 299 299 299 298 297 296 295 294 293 294 293 292 293 294 295 296 298 300 300 299 299 298 299 298 298 298 298 297 297 297 296
304 304 304 302 299 298 298 299 298 297 295 294 293 293 292 292 291 292 292 292 292 293 295 297 298 297 299 298 298 298 298 297 297 297 297 296 295 296
304 304 302 300 297 298 297 295 294 293 293 293 292 292 292 291 292 291 291 291 292 293 294 295 296 296 297 298 297 297 297 297 297 297 296 293 292 292
304 303 300 297 296 294 293 293 293 293 293 292 291 291 291 290 290 291 291 291 292 292 293 295 296 296 297 297 296 296 296 297 296 296 294 292 291 291
303 300 296 295 294 293 293 293 292 292 291 291 290 290 290 289 289 289 290 291 292 291 291 294 294 295 296 296 297 296 296 296 296 296 294 293 292 292
299 296 295 294 293 293 292 292 292 291 290 290 290 289 289 289 289 289 289 289 290 291 291 291 293 294 294 295 295 296 295 296 296 296 296 294 294 293
295 294 294 294 293 292 292 291 291 291 290 290 289 289 289 288 288 288 288 288 290 289 289 290 291 293 293 293 293 295 295 295 295 295 296 295 295 294
294 294 294 294 293 292 291 291 291 290 290 289 289 289 288 288 288 288 288 287 287 287 288 289 290 292 293 294 294 295 295 295 294 295 295 295 295 294
294 294 293 293 292 291 291 291 290 290 289 289 288 288 288 288 288 288 287 287 287 287 287 288 289 291 293 293 294 295 294 294 294 294 294 295 295 294
293 293 293 292 292 291 290 290 290 289 287 288 288 288 288 287 287 287 287 287 287 287 287 287 288 290 292 292 293 294 293 293 294 294 294 294 293 293
Wind_Speed
24 24 26 27 29 29 31 33 35 39 40 40 37 36 34 32 30 28 29 29 29 28 26 24 24 26 27 27 27 27 28 27 26 26 26 26 26 24
22 24 25 25 27 27 29 30 31 36 46 43 43 41 38 35 29 27 27 28 30 30 28 27 26 26 28 29 29 30 30 30 29 27 27 27 26 25
20 22 24 24 26 27 28 30 32 34 42 46 42 39 38 36 32 28 26 26 28 29 29 30 30 29 29 31 30 32 32 33 32 29 29 28 27 27
19 22 24 24 26 28 29 31 32 32 36 43 39 38 37 34 32 30 28 28 26 25 27 29 30 31 31 33 33 33 36 37 33 32 29 29 28 26
21 23 24 25 27 28 29 31 32 32 34 38 41 37 38 37 34 31 30 27 23 21 23 26 29 31 32 34 38 40 35 35 37 38 32 32 28 28
21 23 24 25 27 28 28 28 28 30 31 32 35 37 38 38 35 34 31 25 25 23 24 27 30 31 32 28 30 32 31 31 36 35 32 31 30 28
20 22 23 24 24 24 25 27 25 27 29 30 32 34 35 35 34 32 31 31 31 29 28 25 28 27 27 26 27 27 25 28 31 34 33 29 29 28
22 21 21 21 20 20 20 20 21 24 26 27 29 31 30 27 23 25 27 28 36 32 30 31 32 31 32 29 29 28 26 25 25 28 31 31 28 27
21 21 21 20 19 19 19 20 21 21 23 25 28 29 29 24 24 26 27 30 33 32 32 34 32 31 29 28 30 26 24 25 24 23 27 28 27 26
20 20 21 21 19 20 20 20 20 20 20 20 22 23 23 23 23 25 29 32 34 33 30 35 31 31 29 29 28 25 24 23 23 24 27 26 23 26
17 18 19 19 19 18 20 22 22 21 21 21 19 18 19 20 22 26 28 30 34 34 31 31 33 31 30 30 29 22 19 20 21 22 20 19 21 23
15 16 17 18 19 20 23 25 27 26 24 21 19 20 21 22 22 22 23 26 29 31 27 28 30 28 27 31 24 25 18 15 17 19 19 15 18 22
18 17 17 18 19 21 23 26 26 20 17 20 22 18 17 20 20 22 24 25 27 30 30 31 30 29 27 30 30 23 17 12 14 18 18 17 17 21
19 19 19 21 23 25 22 17 18 19 20 22 23 21 21 22 24 24 23 21 24 29 30 25 33 25 27 30 30 23 18 13 16 18 20 19 17 21
20 21 23 23 22 19 17 17 19 21 22 21 21 21 21 22 22 21 20 21 22 24 21 19 23 21 22 26 29 26 19 15 15 19 20 14 18 23
20 20 22 21 17 15 17 17 18 19 20 20 23 22 21 21 19 19 21 22 25 23 16 18 18 19 23 24 24 27 21 15 9 15 16 11 14 16
20 21 20 17 16 15 15 16 17 18 20 23 23 22 21 23 23 22 22 22 22 27 21 18 16 16 18 19 22 23 23 19 15 12 11 14 15 15
19 19 17 16 16 16 17 18 19 20 22 21 21 21 23 24 24 26 24 18 23 24 22 21 19 18 20 17 15 21 24 22 17 16 15 15 15 13
17 16 17 15 15 16 18 19 21 22 22 21 20 21 22 24 24 26 25 20 21 20 21 20 20 18 20 21 20 17 17 23 20 21 19 19 18 12
17 18 16 16 17 18 19 20 21 22 20 19 20 20 21 22 24 24 25 24 21 25 27 22 17 17 22 19 19 19 13 12 19 22 23 20 16 13
17 17 16 17 18 19 20 22 23 20 19 18 19 20 22 22 24 23 24 23 22 24 27 23 19 17 18 16 17 18 16 10 11 18 23 23 20 16
17 18 18 18 19 19 21 22 23 19 20 19 19 20 21 22 23 25 27 26 25 24 25 24 21 16 16 17 16 17 17 11 12 18 16 19 22 14
16 17 19 19 19 20 21 22 23 20 19 20 20 21 23 23 24 27 28 26 24 23 23 24 21 15 15 16 16 16 15 12 14 17 17 16 17 14
Wind_Direction
296 293 290 292 292 292 292 290 288 287 292 301 302 311 310 311 309 299 291 290 290 295 291 292 293 284 277 272 267 261 260 262 264 262 260 260 260 262
302 299 298 299 299 298 295 292 289 285 282 294 301 306 309 307 307 301 297 293 291 292 292 291 289 285 281 274 266 263 262 263 261 259 259 257 259 256
307 304 304 306 304 303 300 297 294 291 286 298 302 306 307 308 311 309 303 297 292 290 291 289 289 286 286 282 272 262 261 259 261 260 259 257 254 257
312 307 308 309 305 304 303 301 298 297 293 294 301 303 305 309 309 307 308 302 298 292 289 289 288 289 288 288 277 274 268 259 257 256 256 255 257 256
311 310 311 308 307 306 304 301 300 299 296 296 301 306 305 306 308 307 307 308 306 305 300 296 292 288 284 283 278 278 278 272 258 259 253 254 250 249
311 310 309 306 304 303 301 299 300 298 299 298 298 300 302 305 304 306 310 311 311 306 300 299 297 292 293 294 289 281 277 275 259 260 250 256 250 248
312 311 308 306 304 302 301 301 303 304 303 301 298 299 300 303 300 304 304 307 303 305 303 304 303 303 300 301 300 286 279 274 262 254 250 247 248 246
314 314 314 311 310 306 304 303 300 301 301 302 303 302 308 313 316 309 305 310 307 315 313 300 307 299 306 302 305 299 278 279 271 262 253 238 242 244
315 318 319 318 316 315 314 311 307 301 298 299 299 304 307 310 311 307 306 305 302 304 302 299 301 301 309 313 307 293 282 278 272 269 250 243 235 236
318 320 319 321 319 315 315 317 313 310 308 298 293 299 301 305 303 304 304 301 301 299 298 296 296 302 307 307 303 296 284 272 263 263 246 233 232 233
318 321 316 314 313 312 313 313 314 313 306 302 298 294 292 293 294 298 299 304 300 299 302 300 299 303 303 306 308 308 278 265 260 260 247 235 228 234
317 318 313 312 312 314 311 310 308 312 308 307 301 293 288 291 295 289 291 297 301 303 300 300 303 298 301 308 309 312 300 275 250 254 231 222 239 241
317 319 318 315 311 308 307 306 307 312 306 302 310 319 314 300 293 288 280 284 293 290 294 297 299 297 296 295 297 305 301 289 254 236 229 226 233 244
318 320 317 313 314 312 308 303 301 308 310 308 310 312 307 304 299 299 307 309 291 288 285 284 286 286 295 290 291 299 303 287 267 248 235 227 233 236
315 316 317 314 310 307 307 306 310 310 310 315 316 317 318 323 328 328 326 318 309 299 295 287 289 290 297 293 287 290 293 290 273 257 240 229 223 231
305 311 310 311 311 309 308 308 309 310 314 318 321 321 323 325 321 325 323 330 328 320 307 300 299 296 287 294 286 282 284 278 278 255 220 212 224 225
308 312 312 316 318 317 318 315 316 318 319 321 324 327 328 330 327 324 318 321 323 331 323 312 312 291 298 289 278 278 276 276 265 236 196 223 229 234
310 313 316 318 319 321 321 322 320 321 321 321 327 333 333 328 331 326 329 322 324 328 328 326 325 318 316 305 289 270 270 272 266 234 209 226 244 244
313 310 310 312 317 321 321 318 317 319 320 322 325 332 336 334 328 332 331 324 323 323 324 331 336 332 322 305 304 300 276 271 262 238 227 213 222 237
309 312 317 314 313 317 318 313 312 315 315 319 324 328 330 329 327 328 329 329 326 314 315 324 320 324 326 309 300 299 295 278 257 243 235 230 228 216
311 311 315 315 314 314 315 315 314 310 315 316 319 321 329 325 324 323 322 317 316 319 321 314 315 310 312 310 295 299 298 280 258 247 237 229 227 231
311 312 312 312 312 313 312 310 311 307 312 316 319 318 323 320 321 319 321 318 315 316 317 315 315 305 314 316 306 295 295 284 254 244 247 238 229 229
309 311 310 310 310 309 309 309 313 310 315 313 319 316 320 319 318 316 317 317 315 317 322 318 316 305 303 316 307 297 288 272 258 242 235 226 221 239